Location: Unspecified
(42.3650°N, 71.1030°W)
Time: 12:40:10
(UTC+00:00)

Explorer 11/Cluster Stage 4 - Pass Details

Date: 22 June 2024
Orbit: 465 x 1215 km, 28.8° (Epoch: 19 July)

Event Time Altitude Azimuth Distance (km) Brightness Sun altitude
Rises 03:24:54 0° 249° (WSW) 4,097 10.3 -21.6°
Reaches altitude 10° 03:28:21 10° 238° (WSW) 3,080 9.5 -21.8°
Enters shadow 03:32:27 24° 210° (SSW) 2,146 8.4 -22.0°
Maximum altitude 03:34:31 27° 185° (S) 1,953 - -22.1°
Drops below altitude 10° 03:40:02 10° 131° (SE) 2,725 - -22.4°
Sets 03:42:53 0° 119° (ESE) 3,546 - -22.6°
